Location: Robledo de Chavela
(40.5014°N, 4.2377°W)
Time: 09:33:05
(UTC+00:00)

USA 281 - Pass Details

Date: 18 April 2024
Orbit: 1074 x 1084 km, 106.0° (Epoch: 14 May)

Event Time Altitude Azimuth Distance (km) Brightness Sun altitude
Exits shadow 21:45:56 25° 210° (SSW) 2,005 4.4 -27.7°
Maximum altitude 21:48:47 36° 255° (WSW) 1,635 4.3 -28.1°
Drops below altitude 10° 21:54:46 10° 320° (NW) 2,929 6.4 -28.8°
Sets 21:57:33 0° 329° (NNW) 3,890 7.3 -29.1°
